Simultaneous Nadir Overpasses (SNOs) Predictions

Prediction of SNOs between GOES-15 and NOAA-20 Satellite Orbit:

Table of predicted SNOs for the next 14.0 days since TLE Epoch: 4/13/2024
Index Date Time (GOES-15) GOES-15 Lat,Lon NOAA-20 Lat,Lon Distance(km) Time Diff (sec)
1 04/13/2024 21:15:14 0.10, 61.23 -0.27, 62.83 182.99 80
2 04/15/2024 09:34:38 -0.09, 61.29 -0.95, 57.50 432.69 80
3 04/16/2024 09:18:39 -0.10, 61.30 0.06, 62.00 80.01 80
4 04/18/2024 21:19:14 0.10, 61.28 0.14, 61.21 8.98 80
5 04/21/2024 09:22:39 -0.10, 61.35 -0.33, 60.38 111.56 80
6 04/22/2024 09:06:40 -0.10, 61.37 0.68, 64.89 400.94 80
7 04/23/2024 21:25:56 0.09, 61.35 0.46, 59.57 201.57 80
8 04/24/2024 21:09:56 0.10, 61.36 -0.49, 64.09 310.72 80
9 04/26/2024 09:29:20 -0.08, 61.43 -0.69, 58.75 305.82 80
